Regional Weather Roundup
Issued by NWS

Home | Current Version | Previous Version | Text Only | Print | Product List | Glossary On
Versions: 1 2 3 4 5 6 7 8 9 10 11 12 13 14 15 16 17 18 19 20 21 22 23 24 25 26 27 28 29 30 31 32 33 34 35 36 37 38 39 40 41 42 43 44 45 46 47 48 49 50
000
ASUS44 KOUN 281610
RWROK

WEATHER ROUNDUP FOR OKLAHOMA
NATIONAL WEATHER SERVICE NORMAN OK
1000 AM CST WED JAN 28 2015

NOTE: "FAIR" INDICATES FEW OR NO CLOUDS BELOW 12,000 FEET WITH NO
      SIGNIFICANT WEATHER AND/OR OBSTRUCTIONS TO VISIBILITY.

OKZ001>007-009>012-014-015-017-281700-
NORTHWEST OKLAHOMA AND THE PANHANDLE

CITY           SKY/WX    TMP DP  RH WIND       PRES   REMARKS
GAGE           PTSUNNY   58  38  47 SW16G23   29.93S
ENID/WOODRING  PTSUNNY   59  41  51 S12       29.93F
$$

OKZ016-021>023-033>039-044-045-281700-
SOUTHWEST OKLAHOMA

CITY           SKY/WX    TMP DP  RH WIND       PRES   REMARKS
LAWTON/REGL    SUNNY     54  41  61 S6        30.04F
LAWTON/FT SILL SUNNY     54  40  59 SW8       30.02F
FREDERICK      SUNNY     58  41  53 SW12      30.00F
CLINTON        MOSUNNY   55  38  52 SW13      29.99F
HOBART         MOSUNNY   56  41  57 S16       30.00F
ALTUS AFB      SUNNY     57  43  59 S8        30.01F
$$

OKZ018>020-024>031-281700-
CENTRAL OKLAHOMA

CITY           SKY/WX    TMP DP  RH WIND       PRES   REMARKS
OKLAHOMA CITY  MOSUNNY   62  39  42 S10       30.01F
OKC/WILEY POST SUNNY     65  37  35 S16G22    29.99F
OKC/TINKER AFB SUNNY     60  39  46 S16       30.02S
STILLWATER     SUNNY     65  37  35 S13       29.98S
GUTHRIE        SUNNY     66  35  31 S14G26    29.97F
$$

OKZ008-013-054>072-281700-
NORTHEAST OKLAHOMA

CITY           SKY/WX    TMP DP  RH WIND       PRES   REMARKS
TULSA          MOSUNNY   60  40  47 S16G24    30.01F
TULSA/JONES    SUNNY     59  40  49 S9        30.03F
PONCA CITY     SUNNY     61  37  41 S8G17     29.94F
BARTLESVILLE   SUNNY     61  39  44 S10       30.00F
MUSKOGEE       SUNNY     54  37  52 S16       30.09F
$$

OKZ032-040>043-046>053-073>077-281700-
SOUTH CENTRAL/SOUTHEAST OKLAHOMA

CITY           SKY/WX    TMP DP  RH WIND       PRES   REMARKS
ARDMORE/DWNTWN SUNNY     59  41  51 S5        30.08F
MCALESTER      MOSUNNY   64  40  41 S14G21    30.10S
$$



USA.gov is the U.S. government's official web portal to all federal, state and local government web resources and services.